User: anonymous   Login
Location: Seminole
(32.7190°N, 102.6440°W)
Time: 23:58:29
(UTC-06:00)
Language:

Meteor 2-10 - Orbit

View from above orbital plane
View from above orbital plane
View from above satellite
View from above satellite

Ground track
Ground track

The orbit data is extracted from the following two-line orbital elements,

1 14452U 83109A   17328.33517004 +.00000077 +00000-0 +25955-4 0  9995
2 14452 081.1620 274.6617 0090024 276.6770 082.4170 14.26446280771575
Epoch (UTC): 24 November 2017 08:02:38
Eccentricity: 0.0090024
inclination: 81.1620°
perigee height: 739 km
apogee height: 868 km
right ascension of ascending node: 274.6617°
argument of perigee: 276.6770°
revolutions per day: 14.26446280
mean anomaly at epoch: 82.4170°
orbit number at epoch: 77157

The dashed part of the orbit path shows where the satellite is in the earth's shadow,  

DLR